National Oceanic Atmosphere Administration National Weather Service Headquarters National Weather Service Headquarters
NOAA logo WFO Anchorage Scalable transition graphic NWS logo
Transition from title bar to navgation bar   Aviation Weather 09 AKDT 
blankspace Home   |   Mobile   |   Social Media   |   Mesonet   |   Surface Map   |   Radar   |   Submit Storm Reports =17 GMT 

LocalForecast by City, St or Zip Code

spacer

Forecasts/Products
  Public
  Forecast Discussion
    - With Glossary
  Aviation
  Marine
  Hydrology(RFC)
  Rivers & Lakes AHPS
  Ice Desk
  TV Weather
  Fire Weather
  Avalanche
  Travel 511
  Graphical
  xml logo RSS Feeds
  Marine FTPMail

spacer

Data
  Mesonet
  Model Graphics
  Local Model
  Observations
  Marine Obs
  Satellite/Radar
  Vent Factor
  Soaring Index
  Weather Links

spacer

Climate
  PAFC Climate
  Interactive Climate
  PAFC Records
  Local
  National
  More

spacer

Outreach
  About Us
  Community Outreach
  Kids' Page
  Tour/Speaker Request
  Weather Classroom
  Social Media

spacer

Reports
  COOP Observers
  Local Storm Reports
  Spotter Page
  Submit a Storm Report

spacer

Miscellaneous
  Archived Alaska Weather Stories
  Student Career Opportunities
  Research Papers

spacer

Print Friendly/
Low Bandwidth

  Public Forecasts
  Marine Forecasts

spacer

Contact Us
  mailto pafcweb

spacer

Facebook Follow the National Weather Service in Alaska on Twitter
USA.gov is the U.S. government's official web portal to all federal, state and local government web resources and services.


 ICAO ID:   AAWU Graphics

Internet access to TAFs and METAR observations is for planning purposes only. We can not guarantee the timeliness of internet products. Before flying please get a formal pilot briefing (1-800-992-7433) and ALWAYS file a Flight Plan!Pilot briefings are provided to licensed aircraft pilots, ONLY! Others may not use the above number to obtain weather information.

Check out the Key to TAFs and METARs for help with decoding the information.

A 12 hour summary of TAFs can be found here.

PABI TAF
PABI 0120/ VRB06KT 9999 SCT100 QNH3023INS

 
      BECMG 3118/3119 26009KT 9999 BKN080 BKN160 QNH3014INS
      BECMG 0105/0106 26006KT 9999 BKN060 BKN140 QNH3015INS
      BECMG 0111/0112 23006KT 8000 -SHRA BR BKN030 OVC060
      QNH3012INS TX24/0101Z TN10/0113Z=


METAR PABI 311653Z 11005KT 10SM FEW100 BKN200 12/06 A3025 RMK AO2 SLP244
     CIG THN T01220056=
METAR PABI 311653Z 11005KT 10SM FEW100 BKN200 12/06 A3025=
METAR PABI 311553Z 00000KT 10SM FEW100 BKN200 12/05 A3025 RMK AO2 SLP244
     CIG THN T01170050=
METAR PABI 311553Z 00000KT 10SM FEW100 BKN200 12/05 A3025=
METAR PABI 311453Z 12005KT 10SM FEW100 BKN200 08/04 A3025 RMK AO2 SLP246
     CIG THN T00830044 53001=
METAR PABI 311453Z 12005KT 10SM FEW100 BKN200 08/04 A3025=
METAR PABI 311353Z AUTO 00000KT 10SM CLR 11/03 A3025=


National Weather Service
Anchorage Forecast Office
6930 Sand Lake Road
Anchorage, Ak 99502
(907) 266-5105 M-F/7-5pm
About Us
Career Opportunities
Glossary
Disclaimer
Privacy Policy
Credits
Alaska Weather Information Line:
1-800-472-0391